Back to catalog

DELTA 1 DEB

AlivePO
NORAD 26845·DEBRIS·🇺🇸 United States

Launched Jun 12, 1975 from Vandenberg Space Force Base

Loading…

Next Passes (next 24 hours)

TLE

FreshSource: Space-Track

Epoch: Sep 13, 2026, 15:49 UTC

1 26845U 75052KZ  26256.65958356  .00000192  00000-0  81307-3 0  9996
2 26845  99.1861 143.0986 0439404  52.6581 336.8680 12.65503360469591

Track DELTA 1 DEB in real time with AllMySat

Download on the App Store